DW4127 Weather Reports


Display with metric or nautical units.
time (UTC)temp
F
wind
direction
speed
MPH
gust
MPH
rain 1hr
in
rain 24hr
in
rain mn
in
humidity
%
barometer
mb
20260510234549 66 0 1.0 2.0 0.01 0.58 0.58 91 1016.1
20260510233609 66 0.0 2.0 0.01 0.58 0.58 91 1016.1
20260510232549 66 45 1.0 3.0 0.01 0.58 0.58 91 1016.1
20260510231549 66 113 1.0 4.0 0.03 0.57 0.57 91 1015.8
20260510230549 66 135 1.0 4.0 0.11 0.57 0.57 91 1015.7
20260510225549 66 113 1.0 4.0 0.15 0.57 0.57 91 1016.1
20260510224549 66 68 1.0 2.0 0.15 0.57 0.57 90 1015.8
20260510223549 65 68 1.0 3.0 0.15 0.57 0.57 90 1015.5
20260510222549 65 68 1.0 3.0 0.23 0.57 0.57 90 1016.0
20260510221549 66 0 1.0 4.0 0.24 0.54 0.54 90 1016.7
20260510220549 66 23 3.0 10.0 0.16 0.46 0.46 89 1016.7
20260510215549 66 23 4.0 15.0 0.12 0.42 0.42 88 1016.4
20260510214549 66 338 3.0 10.0 0.12 0.42 0.42 88 1016.5
20260510213549 67 23 3.0 8.0 0.12 0.42 0.42 87 1016.4
20260510212609 68 338 5.0 11.0 0.05 0.34 0.34 84 1017.6
20260510211549 68 0 5.0 12.0 0.01 0.30 0.30 82 1017.0
20260510210549 70 23 4.0 9.0 0.01 0.30 0.30 79 1016.2
20260510205549 71 23 2.0 10.0 0.01 0.30 0.30 78 1015.9
20260510204549 72 0 4.0 11.0 0.01 0.30 0.30 77 1015.9
20260510203549 73 0 2.0 5.0 0.01 0.30 0.30 78 1016.0
20260510202549 72 0 2.0 4.0 0.00 0.29 0.29 77 1016.0
20260510201609 72 23 4.0 10.0 0.00 0.29 0.29 77 1016.4
20260510200549 72 23 2.0 4.0 0.00 0.29 0.29 76 1016.4
20260510195549 73 90 2.0 3.0 0.00 0.29 0.29 75 1016.2
20260510194548 74 68 2.0 4.0 0.00 0.29 0.29 75 1016.0
20260510193549 74 113 4.0 9.0 0.00 0.29 0.29 75 1015.9
20260510192549 74 113 3.0 12.0 0.00 0.29 0.29 77 1016.0
20260510191548 74 113 4.0 11.0 0.00 0.29 0.29 77 1016.0
20260510190548 73 90 2.0 7.0 0.00 0.29 0.29 80 1016.1
20260510185548 71 90 4.0 11.0 0.00 0.29 0.29 82 1016.1
20260510184549 71 90 4.0 13.0 0.01 0.29 0.29 86 1016.3
20260510183549 70 113 2.0 5.0 0.06 0.29 0.29 88 1016.2
20260510182548 69 113 2.0 3.0 0.09 0.29 0.29 90 1016.0
20260510181549 68 135 2.0 7.0 0.14 0.29 0.29 91 1016.1
20260510180549 66 90 1.0 3.0 0.22 0.29 0.29 90 1015.6
20260510175549 64 68 1.0 5.0 0.25 0.29 0.29 89 1015.0
20260510174609 64 68 1.0 3.0 0.24 0.28 0.28 89 1015.5
20260510173548 64 0 2.0 4.0 0.19 0.23 0.23 88 1015.9
20260510172548 64 23 3.0 8.0 0.16 0.20 0.20 87 1016.2
20260510171549 65 0 7.0 21.0 0.11 0.15 0.15 84 1016.3
20260510170549 67 23 8.0 21.0 0.03 0.07 0.07 79 1016.3
20260510165548 70 23 8.0 23.0 0.00 0.04 0.04 72 1016.2
20260510164549 76 0 13.0 22.0 0.00 0.04 0.04 64 1015.9
20260510163548 79 203 4.0 8.0 0.00 0.04 0.04 66 1014.8
20260510162548 79 113 4.0 9.0 0.00 0.04 0.04 65 1014.3
20260510161549 80 158 5.0 12.0 0.00 0.04 0.04 64 1013.8
20260510160548 79 158 6.0 13.0 0.00 0.04 0.04 65 1013.4
20260510155608 79 158 5.0 13.0 0.00 0.04 0.04 66 1013.1
20260510154629 78 180 5.0 12.0 0.00 0.04 0.04 67 1012.8
20260510153548 77 158 6.0 11.0 0.00 0.04 0.04 67 1012.8
20260510152548 76 158 6.0 12.0 0.00 0.04 0.04 67 1013.0
20260510151548 75 158 7.0 14.0 0.00 0.04 0.04 68 1012.9
20260510150548 75 180 6.0 12.0 0.00 0.04 0.04 70 1012.7
20260510145548 73 180 6.0 10.0 0.00 0.04 0.04 72 1012.7
20260510144608 72 135 6.0 13.0 0.00 0.04 0.04 75 1012.6
20260510143548 71 158 6.0 13.0 0.00 0.04 0.04 77 1012.9
20260510142548 70 158 5.0 10.0 0.00 0.04 0.04 79 1013.2
20260510141549 69 180 5.0 10.0 0.00 0.04 0.04 82 1013.4
20260510140608 68 135 7.0 14.0 0.00 0.04 0.04 83 1013.8
20260510135548 67 158 5.0 11.0 0.00 0.04 0.04 84 1014.1
20260510134548 67 158 3.0 7.0 0.00 0.04 0.04 85 1014.2
20260510133548 67 135 5.0 8.0 0.00 0.04 0.04 85 1014.3
20260510132548 67 113 3.0 9.0 0.00 0.04 0.04 87 1014.2
20260510131608 67 113 3.0 8.0 0.00 0.04 0.04 87 1014.1
20260510130548 66 113 6.0 10.0 0.00 0.04 0.04 88 1013.8
20260510125548 66 113 5.0 10.0 0.00 0.04 0.04 89 1013.5
20260510124548 66 113 4.0 8.0 0.00 0.04 0.04 89 1013.6
20260510123548 66 90 2.0 7.0 0.00 0.04 0.04 90 1013.6
20260510122548 65 158 3.0 7.0 0.00 0.04 0.04 90 1013.4
20260510121548 65 113 3.0 6.0 0.00 0.04 0.04 90 1013.4
20260510120608 65 90 1.0 5.0 0.00 0.04 0.04 90 1013.2
20260510115608 65 113 1.0 3.0 0.00 0.04 0.04 90 1013.2
20260510114548 65 113 2.0 6.0 0.00 0.04 0.04 90 1013.1
20260510113548 65 0.0 1.0 0.00 0.04 0.04 90 1013.1
20260510112548 65 113 1.0 3.0 0.00 0.04 0.04 90 1013.0
20260510111548 65 90 2.0 6.0 0.00 0.04 0.04 90 1012.9
20260510110608 65 113 2.0 6.0 0.00 0.04 0.04 89 1012.8
20260510105548 65 113 1.0 4.0 0.01 0.04 0.04 89 1012.8
20260510104548 65 113 3.0 7.0 0.03 0.04 0.04 89 1012.5
20260510103548 65 113 1.0 5.0 0.04 0.04 0.04 88 1012.6
20260510102548 65 113 2.0 9.0 0.04 0.04 0.04 88 1012.8
20260510101548 65 68 2.0 4.0 0.04 0.04 0.04 87 1012.8
20260510100548 66 68 3.0 8.0 0.04 0.04 0.04 86 1012.5
20260510095608 67 90 3.0 15.0 0.03 0.03 0.03 85 1012.5
20260510094628 68 68 3.0 15.0 0.01 0.01 0.01 82 1012.7
20260510093548 70 68 4.0 10.0 0.00 0.00 0.00 77 1013.5
20260510092548 70 0 6.0 18.0 0.00 0.00 0.00 79 1013.3
20260510091628 72 23 4.0 9.0 0.00 0.00 0.00 83 1012.9
20260510090608 75 293 2.0 5.0 0.00 0.00 0.00 87 1012.2
20260510085548 75 0 2.0 4.0 0.00 0.00 0.00 87 1011.9
20260510084548 75 113 1.0 3.0 0.00 0.00 0.00 87 1011.3
20260510082548 75 0 2.0 6.0 0.00 0.00 0.00 86 1011.4
20260510081548 74 0 2.0 6.0 0.00 0.00 0.00 86 1011.2
20260510080548 74 135 1.0 2.0 0.00 0.00 0.00 85 1010.7
20260510075608 74 0.0 0.0 0.00 0.00 0.00 84 1010.3
20260510074608 75 0.0 0.0 0.00 0.00 0.00 84 1010.0
20260510073548 75 0.0 1.0 0.00 0.00 0.00 84 1009.8
20260510072548 75 135 2.0 6.0 0.00 0.00 0.00 83 1009.5
20260510071548 75 0.0 3.0 0.00 0.00 0.00 83 1009.7
20260510070548 76 23 1.0 3.0 0.00 0.00 0.00 81 1010.0
20260510065548 77 0 3.0 5.0 0.00 0.00 0.00 80 1010.8
20260510064548 76 0 4.0 8.0 0.00 0.00 0.00 80 1011.0
20260510063548 76 0 3.0 5.0 0.00 0.00 0.00 80 1011.1
20260510062548 76 0 2.0 6.0 0.00 0.00 0.00 80 1011.0
20260510061548 76 0 3.0 7.0 0.00 0.00 0.00 80 1010.9
20260510060548 76 113 1.0 4.0 0.00 0.00 0.00 80 1009.7
20260510055608 76 113 4.0 9.0 0.00 0.00 0.00 81 1009.1
20260510054648 76 113 4.0 8.0 0.00 0.00 0.00 81 1008.9
20260510053548 76 113 3.0 7.0 0.00 0.00 0.00 81 1008.8
20260510052548 76 113 5.0 10.0 0.00 0.00 0.00 81 1008.6
20260510051548 76 113 4.0 8.0 0.00 0.00 0.00 80 1008.7
20260510050548 76 113 3.0 9.0 0.00 0.00 0.00 79 1008.6
20260510045549 76 135 5.0 12.0 0.00 0.00 0.00 77 1008.4
20260510044549 76 113 5.0 10.0 0.00 0.00 0.00 76 1008.3
20260510043549 77 113 5.0 13.0 0.00 0.00 0.00 74 1008.2
20260510042609 77 113 4.0 9.0 0.00 0.00 0.00 72 1008.1
20260510041609 77 113 4.0 9.0 0.00 0.00 0.00 71 1008.4
20260510040549 77 113 3.0 7.0 0.00 0.00 0.00 71 1008.5
20260510035609 77 135 3.0 5.0 0.00 0.00 0.00 70 1008.5
20260510034549 78 135 2.0 5.0 0.00 0.00 0.00 69 1008.4
20260510033549 78 113 3.0 6.0 0.00 0.00 0.00 68 1008.3
20260510032609 78 113 3.0 6.0 0.00 0.00 0.00 67 1008.4
20260510031549 79 113 2.0 6.0 0.00 0.00 0.00 67 1008.6
20260510030609 79 113 2.0 4.0 0.00 0.00 0.00 67 1008.5
20260510025549 79 113 1.0 4.0 0.00 0.00 0.00 67 1008.4
20260510024549 79 113 1.0 3.0 0.00 0.00 0.00 67 1008.4
20260510023549 79 113 1.0 3.0 0.00 0.00 0.00 66 1008.2
20260510022549 79 113 1.0 3.0 0.00 0.00 0.00 65 1008.2
20260510021549 80 0.0 2.0 0.00 0.00 0.00 64 1008.0
20260510020549 80 0.0 2.0 0.00 0.00 0.00 63 1007.9
20260510015549 80 0.0 3.0 0.00 0.00 0.00 62 1007.8
20260510014549 81 0.0 1.0 0.00 0.00 0.00 61 1007.8
20260510013609 81 0.0 2.0 0.00 0.00 0.00 60 1007.7
20260510012549 82 0.0 1.0 0.00 0.00 0.00 59 1007.5
20260510011549 82 135 1.0 2.0 0.00 0.00 0.00 58 1007.4
20260510010549 82 0.0 2.0 0.00 0.00 0.00 57 1007.3
20260510005609 83 135 1.0 2.0 0.00 0.00 0.00 55 1007.2
20260510004549 84 135 1.0 2.0 0.00 0.00 0.00 53 1007.2
20260510003609 84 113 1.0 2.0 0.00 0.00 0.00 53 1007.3
20260510002549 84 90 1.0 3.0 0.00 0.00 0.00 53 1007.2
20260510001549 85 90 1.0 3.0 0.00 0.00 0.00 53 1007.3
20260510000549 85 0.0 0.0 0.00 0.00 0.00 53 1007.2
20260509235549 85 45 1.0 2.0 0.00 0.00 0.00 52 1007.2